• En España
  • Lista de países
  • Para 7 días
  • Temperatura del agua
  • Mapa Satelital
  • El tiempo en el mapa
  • Informadores
  • user-avatar
    Iniciar sesión

    Tiempo cada hora Korçe

    Hoy, 18 Octubre, Miércoles

    Tiempo Temperatura Precipitaciones Viento Presión Humedad
    00:00 +13°C° 0 mm 1 mps 672 mmHg 58%
    01:00 +12°C° 0 mm 1 mps 671 mmHg 58%
    02:00 +12°C° 0 mm 1 mps 671 mmHg 58%
    03:00 +12°C° 0 mm 1 mps 671 mmHg 58%
    04:00 +12°C° 0 mm 2 mps 671 mmHg 58%
    05:00 +12°C° 0 mm 1 mps 671 mmHg 57%
    06:00 +12°C° 0 mm 1 mps 671 mmHg 56%
    07:00 +14°C° 0 mm 2 mps 671 mmHg 53%
    08:00 +16°C° 0 mm 2 mps 671 mmHg 46%
    09:00 +19°C° 0 mm 1 mps 672 mmHg 39%
    10:00 +21°C° 0 mm 1 mps 672 mmHg 32%
    11:00 +22°C° 0 mm 1 mps 672 mmHg 31%
    12:00 +22°C° 0 mm 1 mps 672 mmHg 29%
    13:00 +23°C° 0 mm 2 mps 672 mmHg 28%
    14:00 +22°C° 0 mm 1 mps 672 mmHg 32%
    15:00 +21°C° 0 mm 1 mps 671 mmHg 37%
    16:00 +20°C° 0 mm 1 mps 670 mmHg 41%
    17:00 +18°C° 0 mm 1 mps 670 mmHg 46%
    18:00 +16°C° 0 mm 1 mps 670 mmHg 50%
    19:00 +13°C° 0 mm 0 mps 670 mmHg 55%
    20:00 +12°C° 0 mm 0 mps 670 mmHg 55%
    21:00 +13°C° 0 mm 1 mps 669 mmHg 55%
    22:00 +13°C° 0 mm 1 mps 669 mmHg 56%
    23:00 +12°C° 0 mm 1 mps 669 mmHg 55%

    Mañana, 19 Octubre, Jueves

    Tiempo Temperatura Precipitaciones Viento Presión Humedad
    00:00 +12°C° 0 mm 1 mps 669 mmHg 55%
    01:00 +12°C° 0 mm 1 mps 669 mmHg 55%
    02:00 +12°C° 0 mm 1 mps 669 mmHg 55%
    03:00 +11°C° 0 mm 1 mps 668 mmHg 55%
    04:00 +11°C° 0 mm 1 mps 668 mmHg 56%
    05:00 +11°C° 0 mm 1 mps 668 mmHg 56%
    06:00 +12°C° 0 mm 1 mps 669 mmHg 56%
    07:00 +12°C° 0 mm 1 mps 669 mmHg 55%
    08:00 +15°C° 0 mm 1 mps 670 mmHg 50%
    09:00 +18°C° 0 mm 1 mps 670 mmHg 44%
    10:00 +20°C° 0 mm 1 mps 671 mmHg 39%
    11:00 +21°C° 0 mm 1 mps 671 mmHg 38%
    12:00 +20°C° 0 mm 2 mps 671 mmHg 36%
    13:00 +21°C° 0 mm 2 mps 671 mmHg 35%
    14:00 +20°C° 0 mm 2 mps 670 mmHg 39%
    15:00 +19°C° 0 mm 2 mps 670 mmHg 43%
    16:00 +18°C° 0 mm 2 mps 670 mmHg 47%
    17:00 +16°C° 0 mm 1 mps 669 mmHg 54%
    18:00 +14°C° 0 mm 1 mps 669 mmHg 61%
    19:00 +13°C° 0 mm 1 mps 669 mmHg 68%
    20:00 +12°C° 0 mm 1 mps 669 mmHg 70%
    21:00 +12°C° 0 mm 1 mps 669 mmHg 72%
    22:00 +11°C° 0 mm 1 mps 669 mmHg 74%
    23:00 +11°C° 0 mm 1 mps 669 mmHg 76%

    Pasado mañana, 20 Octubre, Viernes

    Tiempo Temperatura Precipitaciones Viento Presión Humedad
    00:00 +11°C° 0 mm 1 mps 669 mmHg 77%
    01:00 +10°C° 0 mm 1 mps 668 mmHg 78%
    02:00 +10°C° 0 mm 1 mps 668 mmHg 79%
    03:00 +10°C° 0 mm 1 mps 668 mmHg 79%
    04:00 +10°C° 0 mm 1 mps 668 mmHg 80%
    05:00 +10°C° 0 mm 1 mps 668 mmHg 77%
    06:00 +11°C° 0 mm 1 mps 668 mmHg 74%
    07:00 +11°C° 0 mm 1 mps 669 mmHg 72%
    08:00 +13°C° 0 mm 1 mps 669 mmHg 62%
    09:00 +16°C° 0 mm 1 mps 670 mmHg 53%
    10:00 +19°C° 0 mm 1 mps 671 mmHg 43%
    11:00 +20°C° 0 mm 1 mps 670 mmHg 41%
    12:00 +20°C° 0 mm 1 mps 670 mmHg 39%
    13:00 +20°C° 0 mm 2 mps 670 mmHg 37%
    14:00 +19°C° 0 mm 2 mps 670 mmHg 41%
    15:00 +18°C° 0 mm 2 mps 670 mmHg 45%
    16:00 +17°C° 0 mm 2 mps 669 mmHg 50%
    17:00 +16°C° 0 mm 1 mps 669 mmHg 58%
    18:00 +14°C° 0 mm 1 mps 669 mmHg 66%
    19:00 +12°C° 0 mm 1 mps 669 mmHg 74%
    20:00 +12°C° 0 mm 1 mps 669 mmHg 76%
    21:00 +11°C° 0 mm 1 mps 669 mmHg 78%
    22:00 +11°C° 0 mm 1 mps 669 mmHg 80%
    23:00 +11°C° 0 mm 1 mps 669 mmHg 80%

    21 Octubre, Sábado

    Tiempo Temperatura Precipitaciones Viento Presión Humedad
    00:00 +10°C° 0 mm 1 mps 669 mmHg 80%
    01:00 +10°C° 0 mm 1 mps 669 mmHg 80%
    02:00 +10°C° 0 mm 1 mps 669 mmHg 79%
    03:00 +10°C° 0 mm 1 mps 668 mmHg 79%
    04:00 +10°C° 0 mm 1 mps 668 mmHg 79%
    05:00 +10°C° 0 mm 1 mps 668 mmHg 76%
    06:00 +11°C° 0 mm 1 mps 669 mmHg 73%
    07:00 +11°C° 0 mm 1 mps 669 mmHg 70%
    08:00 +13°C° 0 mm 1 mps 669 mmHg 62%
    09:00 +16°C° 0 mm 1 mps 670 mmHg 53%
    10:00 +19°C° 0 mm 1 mps 671 mmHg 45%
    11:00 +19°C° 0 mm 1 mps 671 mmHg 43%
    12:00 +19°C° 0 mm 2 mps 670 mmHg 41%
    13:00 +19°C° 0 mm 2 mps 670 mmHg 40%
    14:00 +18°C° 0 mm 2 mps 670 mmHg 44%
    15:00 +18°C° 0 mm 2 mps 669 mmHg 47%
    16:00 +17°C° 0 mm 2 mps 669 mmHg 51%
    17:00 +15°C° 0 mm 1 mps 669 mmHg 56%
    18:00 +14°C° 0 mm 1 mps 669 mmHg 61%
    19:00 +12°C° 0 mm 1 mps 669 mmHg 66%
    20:00 +12°C° 0 mm 1 mps 669 mmHg 67%
    21:00 +12°C° 0 mm 1 mps 669 mmHg 67%
    22:00 +11°C° 0 mm 1 mps 669 mmHg 67%
    23:00 +11°C° 0 mm 1 mps 668 mmHg 66%

    22 Octubre, Domingo

    Tiempo Temperatura Precipitaciones Viento Presión Humedad
    00:00 +11°C° 0 mm 1 mps 668 mmHg 66%
    01:00 +10°C° 0 mm 1 mps 668 mmHg 65%
    02:00 +10°C° 0 mm 1 mps 668 mmHg 65%
    03:00 +10°C° 0 mm 1 mps 668 mmHg 65%
    04:00 +10°C° 0 mm 1 mps 668 mmHg 65%
    05:00 +10°C° 0 mm 1 mps 668 mmHg 64%
    06:00 +11°C° 0 mm 1 mps 668 mmHg 62%
    07:00 +11°C° 0 mm 1 mps 668 mmHg 61%
    08:00 +13°C° 0 mm 1 mps 669 mmHg 54%
    09:00 +16°C° 0 mm 1 mps 669 mmHg 47%
    10:00 +19°C° 0 mm 1 mps 670 mmHg 39%
    11:00 +18°C° 0 mm 2 mps 669 mmHg 39%
    12:00 +19°C° 0 mm 2 mps 669 mmHg 38%
    13:00 +19°C° 0 mm 2 mps 669 mmHg 37%
    14:00 +18°C° 0 mm 2 mps 668 mmHg 41%
    15:00 +18°C° 0 mm 2 mps 668 mmHg 46%
    16:00 +17°C° 0 mm 2 mps 667 mmHg 50%
    17:00 +15°C° 0 mm 1 mps 667 mmHg 57%
    18:00 +14°C° 0 mm 1 mps 667 mmHg 64%
    19:00 +12°C° 0 mm 1 mps 666 mmHg 71%
    20:00 +12°C° 0 mm 1 mps 666 mmHg 74%
    21:00 +11°C° 0 mm 1 mps 666 mmHg 76%
    22:00 +11°C° 0 mm 1 mps 666 mmHg 79%
    23:00 +10°C° 0 mm 2 mps 665 mmHg 80%

    23 Octubre, Lunes

    Tiempo Temperatura Precipitaciones Viento Presión Humedad
    00:00 +10°C° 0 mm 2 mps 665 mmHg 81%
    01:00 +10°C° 0 mm 2 mps 665 mmHg 83%
    02:00 +10°C° 0 mm 2 mps 664 mmHg 83%
    03:00 +9°C° 0 mm 2 mps 664 mmHg 84%
    04:00 +9°C° 0 mm 2 mps 663 mmHg 85%
    05:00 +9°C° 0,8 mm 2 mps 663 mmHg 84%
    06:00 +9°C° 0,8 mm 2 mps 663 mmHg 83%
    07:00 +9°C° 0,8 mm 2 mps 662 mmHg 82%
    08:00 +9°C° 3,8 mm 2 mps 662 mmHg 82%
    09:00 +9°C° 3,8 mm 2 mps 662 mmHg 83%
    10:00 +9°C° 3,8 mm 2 mps 662 mmHg 84%
    11:00 +9°C° 2,7 mm 2 mps 661 mmHg 85%
    12:00 +9°C° 2,7 mm 2 mps 661 mmHg 86%
    13:00 +9°C° 2,7 mm 2 mps 660 mmHg 87%
    14:00 +9°C° 2,4 mm 2 mps 660 mmHg 87%
    15:00 +9°C° 2,4 mm 2 mps 660 mmHg 86%
    16:00 +10°C° 2,4 mm 1 mps 659 mmHg 86%
    17:00 +9°C° 0,4 mm 1 mps 659 mmHg 87%
    18:00 +9°C° 0,4 mm 1 mps 659 mmHg 88%
    19:00 +8°C° 0,4 mm 1 mps 659 mmHg 90%
    20:00 +8°C° 0,2 mm 1 mps 659 mmHg 90%
    21:00 +8°C° 0,2 mm 1 mps 659 mmHg 90%
    22:00 +8°C° 0,2 mm 1 mps 659 mmHg 90%
    23:00 +8°C° 0,2 mm 1 mps 659 mmHg 89%
    Mostrar más